Location: �perlecques
(50.8057°N, 2.1521°E)
Time: 19:56:31
(UTC+00:00)

Vanguard 3 - Pass Details

Date: 31 July 2021
Orbit: 510 x 3260 km, 33.3° (Epoch: 17 September)

Event Time Altitude Azimuth Distance (km) Brightness Sun altitude
Rises 00:59:05 0° 274° (W) 7,231 11.9 -19.6°
Reaches altitude 10° 01:07:30 10° 256° (WSW) 6,070 11.3 -19.3°
Maximum altitude 01:15:37 15° 230° (SW) 5,321 10.8 -18.9°
Enters shadow 01:15:45 15° 229° (SW) 5,314 10.8 -18.9°
